ギャラッド彗星

C/2009 P1 ( Garradd )

English version
Home page
Updated on April 28, 2012

---------------------------------------------------------------------

・ プロフィール

発見日 2009年8月13日
発見光度 17.5等
発見者 G. J. Garradd (Siding Spring Observatory)

・ 写真集

・ 軌道要素

Epoch 2011 Dec. 25.0 TT = JDT 2455920.5
T 2011 Dec. 23.67683 TT                                 MPC
q   1.5505579            (2000.0)            P               Q
z  -0.0006891      Peri.   90.74670     -0.16659900     -0.82691378
 +/-0.0000001      Node   325.99765     -0.58720508     +0.52077730
e   1.0010684      Incl.  106.17751     +0.79210793     +0.21214289
From 5164 observations 2009 Aug. 13-2012 Mar. 2, mean residual 0".5.

・ 星図

・ 光度変化

        m1 = 3.2 + 5 logΔ + 10.5 log r

---------------------------------------------------------------------

軌道要素はM.P.E.C. 2012-E18に掲載されたものです。
星図はステラナビゲータ Ver.8 (アストロアーツ) で作成したものです。
光度グラフはComet for Windowsで作成したものです。

---------------------------------------------------------------------

Copyright(C) Seiichi Yoshida (comet@aerith.net). All rights reserved.